Year,Month,Day,Hour,Minute,Value (Times are PST for temperature in C)
2016,05,01,00,01,11.60
2016,05,01,00,02,11.60
2016,05,01,00,03,11.60
2016,05,01,00,04,11.60
2016,05,01,00,06,11.60
2016,05,01,00,07,11.60
2016,05,01,00,09,11.60
2016,05,01,00,11,11.40
2016,05,01,00,12,11.40
2016,05,01,00,13,11.40
2016,05,01,00,14,11.40
2016,05,01,00,16,11.40
2016,05,01,00,17,11.40
2016,05,01,00,18,11.40
2016,05,01,00,19,11.40
2016,05,01,00,21,11.30
2016,05,01,00,22,11.30
2016,05,01,00,23,11.30
2016,05,01,00,24,11.30
2016,05,01,00,26,11.30
2016,05,01,00,27,11.30
2016,05,01,00,28,11.30
2016,05,01,00,29,11.30
2016,05,01,00,31,11.30
2016,05,01,00,32,11.20
2016,05,01,00,33,11.20
2016,05,01,00,34,11.20
2016,05,01,00,36,11.20
2016,05,01,00,37,11.20
2016,05,01,00,38,11.20
2016,05,01,00,39,11.20
2016,05,01,00,41,11.20
2016,05,01,00,42,11.10
2016,05,01,00,43,11.10
2016,05,01,00,44,11.10
2016,05,01,00,46,11.10
2016,05,01,00,47,11.10
2016,05,01,00,48,11.10
2016,05,01,00,49,11.10
2016,05,01,00,51,11.10
2016,05,01,00,52,11.10
2016,05,01,00,53,11.10
2016,05,01,00,54,11.10
2016,05,01,00,56,11.20
2016,05,01,00,57,11.20
2016,05,01,00,58,11.20
2016,05,01,00,59,11.20
2016,05,01,01,01,11.20
2016,05,01,01,02,11.20
2016,05,01,01,03,11.20
2016,05,01,01,04,11.20
2016,05,01,01,06,11.10
2016,05,01,01,07,11.10
2016,05,01,01,08,11.10
2016,05,01,01,09,11.10
2016,05,01,01,11,11.10
2016,05,01,01,12,11.10
2016,05,01,01,13,11.10
2016,05,01,01,14,11.10
2016,05,01,01,15,11.10
2016,05,01,01,16,11.10
2016,05,01,01,17,10.90
2016,05,01,01,18,10.90
2016,05,01,01,19,10.90
2016,05,01,01,20,10.90
2016,05,01,01,21,10.90
2016,05,01,01,22,10.90
2016,05,01,01,23,10.90
2016,05,01,01,24,10.90
2016,05,01,01,25,10.90
2016,05,01,01,26,10.90
2016,05,01,01,27,10.90
2016,05,01,01,28,10.90
2016,05,01,01,29,10.90
2016,05,01,01,30,10.90
2016,05,01,01,31,10.80
2016,05,01,01,32,10.80
2016,05,01,01,33,10.80
2016,05,01,01,34,10.80
2016,05,01,01,35,10.80
2016,05,01,01,36,10.70
2016,05,01,01,37,10.70
2016,05,01,01,38,10.70
2016,05,01,01,39,10.70
2016,05,01,01,40,10.60
2016,05,01,01,41,10.60
2016,05,01,01,42,10.60
2016,05,01,01,43,10.60
2016,05,01,01,44,10.60
2016,05,01,01,45,10.60
2016,05,01,01,46,10.60
2016,05,01,01,47,10.60
2016,05,01,01,48,10.40
2016,05,01,01,49,10.40
2016,05,01,01,50,10.40
2016,05,01,01,51,10.40
2016,05,01,01,52,10.40
2016,05,01,01,53,10.30
2016,05,01,01,54,10.30
2016,05,01,01,55,10.30
2016,05,01,01,56,10.20
2016,05,01,01,57,10.20
2016,05,01,01,58,10.10
2016,05,01,01,59,10.10
2016,05,01,02,00,10.10
2016,05,01,02,01,10.10
2016,05,01,02,02,10.10
2016,05,01,02,03,9.90
2016,05,01,02,04,9.90
2016,05,01,02,05,9.90
2016,05,01,02,06,9.90
2016,05,01,02,07,9.90
2016,05,01,02,08,9.80
2016,05,01,02,09,9.80
2016,05,01,02,10,9.80
2016,05,01,02,11,9.80
2016,05,01,02,12,9.70
2016,05,01,02,13,9.70
2016,05,01,02,14,9.70
2016,05,01,02,15,9.70
2016,05,01,02,16,9.70
2016,05,01,02,17,9.70
2016,05,01,02,18,9.70
2016,05,01,02,19,9.70
2016,05,01,02,20,9.70
2016,05,01,02,21,9.70
2016,05,01,02,22,9.70
2016,05,01,02,23,9.70
2016,05,01,02,24,9.60
2016,05,01,02,25,9.60
2016,05,01,02,26,9.60
2016,05,01,02,27,9.60
2016,05,01,02,28,9.50
2016,05,01,02,29,9.50
2016,05,01,02,31,9.40
2016,05,01,02,33,9.40
2016,05,01,02,34,9.40
2016,05,01,02,35,9.30
2016,05,01,02,37,9.30
2016,05,01,02,38,9.30
2016,05,01,02,39,9.30
2016,05,01,02,41,9.20
2016,05,01,02,42,9.20
2016,05,01,02,43,9.20
2016,05,01,02,44,9.20
2016,05,01,02,46,9.20
2016,05,01,02,47,9.20
2016,05,01,02,48,9.20
2016,05,01,02,49,9.20
2016,05,01,02,51,9.20
2016,05,01,02,52,9.20
2016,05,01,02,53,9.20
2016,05,01,02,54,9.20
2016,05,01,02,56,9.20
2016,05,01,02,57,9.20
2016,05,01,02,58,9.20
2016,05,01,02,59,9.20
2016,05,01,03,01,9.20
2016,05,01,03,02,9.20
2016,05,01,03,03,9.20
2016,05,01,03,04,9.20
2016,05,01,03,06,9.20
2016,05,01,03,07,9.10
2016,05,01,03,08,9.10
2016,05,01,03,09,9.10
2016,05,01,03,11,9.10
2016,05,01,03,12,9.10
2016,05,01,03,13,9.10
2016,05,01,03,14,9.00
2016,05,01,03,16,9.00
2016,05,01,03,17,9.00
2016,05,01,03,18,9.00
2016,05,01,03,19,9.00
2016,05,01,03,21,9.00
2016,05,01,03,22,9.10
2016,05,01,03,23,9.10
2016,05,01,03,24,9.10
2016,05,01,03,26,9.10
2016,05,01,03,27,9.10
2016,05,01,03,28,9.10
2016,05,01,03,29,9.10
2016,05,01,03,31,9.20
2016,05,01,03,32,9.20
2016,05,01,03,33,9.20
2016,05,01,03,34,9.20
2016,05,01,03,36,9.20
2016,05,01,03,37,9.20
2016,05,01,03,38,9.20
2016,05,01,03,39,9.20
2016,05,01,03,41,9.20
2016,05,01,03,42,9.20
2016,05,01,03,43,9.20
2016,05,01,03,44,9.30
2016,05,01,03,45,9.30
2016,05,01,03,46,9.40
2016,05,01,03,47,9.40
2016,05,01,03,48,9.40
2016,05,01,03,49,9.40
2016,05,01,03,51,9.50
2016,05,01,03,52,9.50
2016,05,01,03,53,9.50
2016,05,01,03,54,9.50
2016,05,01,03,55,9.50
2016,05,01,03,56,9.50
2016,05,01,03,57,9.50
2016,05,01,03,58,9.50
2016,05,01,03,59,9.50
2016,05,01,04,00,9.60
2016,05,01,04,01,9.60
2016,05,01,04,02,9.60
2016,05,01,04,03,9.60
2016,05,01,04,04,9.70
2016,05,01,04,05,9.70
2016,05,01,04,06,9.70
2016,05,01,04,07,9.70
2016,05,01,04,08,9.80
2016,05,01,04,09,9.80
2016,05,01,04,10,9.80
2016,05,01,04,11,9.80
2016,05,01,04,12,9.80
2016,05,01,04,13,9.80
2016,05,01,04,14,9.80
2016,05,01,04,15,9.80
2016,05,01,04,16,9.80
2016,05,01,04,17,9.80
2016,05,01,04,18,9.80
2016,05,01,04,19,9.80
2016,05,01,04,20,9.80
2016,05,01,04,21,9.70
2016,05,01,04,22,9.70
2016,05,01,04,23,9.70
2016,05,01,04,24,9.70
2016,05,01,04,25,9.70
2016,05,01,04,26,9.70
2016,05,01,04,27,9.70
2016,05,01,04,28,9.70
2016,05,01,04,29,9.70
2016,05,01,04,30,9.70
2016,05,01,04,31,9.70
2016,05,01,04,32,9.70
2016,05,01,04,33,9.70
2016,05,01,04,34,9.70
2016,05,01,04,35,9.70
2016,05,01,04,36,9.70
2016,05,01,04,37,9.70
2016,05,01,04,38,9.70
2016,05,01,04,39,9.70
2016,05,01,04,40,9.70
2016,05,01,04,41,9.70
2016,05,01,04,42,9.70
2016,05,01,04,43,9.70
2016,05,01,04,44,9.70
2016,05,01,04,45,9.70
2016,05,01,04,46,9.70
2016,05,01,04,47,9.70
2016,05,01,04,48,9.70
2016,05,01,04,49,9.70
2016,05,01,04,50,9.70
2016,05,01,04,51,9.70
2016,05,01,04,52,9.70
2016,05,01,04,53,9.70
2016,05,01,04,54,9.70
2016,05,01,04,55,9.70
2016,05,01,04,56,9.70
2016,05,01,04,57,9.70
2016,05,01,04,58,9.70
2016,05,01,04,59,9.70
2016,05,01,05,00,9.70
2016,05,01,05,01,9.70
2016,05,01,05,02,9.70
2016,05,01,05,03,9.70
2016,05,01,05,04,9.70
2016,05,01,05,05,9.70
2016,05,01,05,06,9.70
2016,05,01,05,07,9.70
2016,05,01,05,08,9.70
2016,05,01,05,09,9.70
2016,05,01,05,10,9.70
2016,05,01,05,11,9.70
2016,05,01,05,12,9.70
2016,05,01,05,13,9.70
2016,05,01,05,14,9.70
2016,05,01,05,15,9.70
2016,05,01,05,16,9.70
2016,05,01,05,17,9.70
2016,05,01,05,18,9.70
2016,05,01,05,19,9.70
2016,05,01,05,20,9.70
2016,05,01,05,21,9.70
2016,05,01,05,23,9.70
2016,05,01,05,24,9.70
2016,05,01,05,26,9.70
2016,05,01,05,27,9.70
2016,05,01,05,28,9.70
2016,05,01,05,29,9.70
2016,05,01,05,31,9.70
2016,05,01,05,32,9.70
2016,05,01,05,33,9.70
2016,05,01,05,34,9.70
2016,05,01,05,36,9.70
2016,05,01,05,37,9.70
2016,05,01,05,38,9.70
2016,05,01,05,39,9.70
2016,05,01,05,41,9.70
2016,05,01,05,42,9.70
2016,05,01,05,43,9.70
2016,05,01,05,44,9.70
2016,05,01,05,46,9.70
2016,05,01,05,47,9.70
2016,05,01,05,48,9.70
2016,05,01,05,49,9.70
2016,05,01,05,51,9.70
2016,05,01,05,52,9.70
2016,05,01,05,53,9.70
2016,05,01,05,54,9.70
2016,05,01,05,56,9.70
2016,05,01,05,57,9.70
2016,05,01,05,58,9.70
2016,05,01,05,59,9.70
2016,05,01,06,01,9.70
2016,05,01,06,02,9.70
2016,05,01,06,03,9.70
2016,05,01,06,04,9.70
2016,05,01,06,06,9.70
2016,05,01,06,07,9.70
2016,05,01,06,08,9.70
2016,05,01,06,09,9.70
2016,05,01,06,11,9.70
2016,05,01,06,12,9.70
2016,05,01,06,13,9.70
2016,05,01,06,14,9.70
2016,05,01,06,16,9.70
2016,05,01,06,17,9.70
2016,05,01,06,18,9.70
2016,05,01,06,19,9.70
2016,05,01,06,21,9.70
2016,05,01,06,22,9.70
2016,05,01,06,23,9.70
2016,05,01,06,24,9.70
2016,05,01,06,26,9.70
2016,05,01,06,27,9.70
2016,05,01,06,28,9.80
2016,05,01,06,29,9.80
2016,05,01,06,31,9.80
2016,05,01,06,32,9.80
2016,05,01,06,33,9.90
2016,05,01,06,34,9.90
2016,05,01,06,36,9.90
2016,05,01,06,37,9.90
2016,05,01,06,38,9.90
2016,05,01,06,39,9.90
2016,05,01,06,41,9.90
2016,05,01,06,42,9.90
2016,05,01,06,43,9.90
2016,05,01,06,44,10.10
2016,05,01,06,45,10.10
2016,05,01,06,46,10.10
2016,05,01,06,47,10.10
2016,05,01,06,48,10.10
2016,05,01,06,49,10.10
2016,05,01,06,50,10.10
2016,05,01,06,51,10.10
2016,05,01,06,52,10.10
2016,05,01,06,53,10.10
2016,05,01,06,54,10.10
2016,05,01,06,55,10.10
2016,05,01,06,56,10.10
2016,05,01,06,57,10.10
2016,05,01,06,58,10.10
2016,05,01,06,59,10.10
2016,05,01,07,00,10.10
2016,05,01,07,01,10.10
2016,05,01,07,02,10.10
2016,05,01,07,03,10.20
2016,05,01,07,04,10.20
2016,05,01,07,06,10.20
2016,05,01,07,07,10.20
2016,05,01,07,08,10.20
2016,05,01,07,09,10.10
2016,05,01,07,10,10.20
2016,05,01,07,11,10.20
2016,05,01,07,12,10.20
2016,05,01,07,13,10.20
2016,05,01,07,14,10.20
2016,05,01,07,15,10.20
2016,05,01,07,16,10.30
2016,05,01,07,17,10.30
2016,05,01,07,18,10.30
2016,05,01,07,19,10.30
2016,05,01,07,20,10.40
2016,05,01,07,21,10.40
2016,05,01,07,22,10.40
2016,05,01,07,23,10.40
2016,05,01,07,24,10.40
2016,05,01,07,25,10.40
2016,05,01,07,26,10.40
2016,05,01,07,27,10.40
2016,05,01,07,28,10.40
2016,05,01,07,29,10.40
2016,05,01,07,30,10.60
2016,05,01,07,31,10.60
2016,05,01,07,32,10.60
2016,05,01,07,33,10.60
2016,05,01,07,34,10.60
2016,05,01,07,35,10.60
2016,05,01,07,36,10.60
2016,05,01,07,37,10.70
2016,05,01,07,38,10.70
2016,05,01,07,39,10.80
2016,05,01,07,40,10.80
2016,05,01,07,41,10.80
2016,05,01,07,42,10.90
2016,05,01,07,43,10.90
2016,05,01,07,44,10.90
2016,05,01,07,45,10.90
2016,05,01,07,46,10.90
2016,05,01,07,47,10.90
2016,05,01,07,48,11.10
2016,05,01,07,49,11.10
2016,05,01,07,50,11.10
2016,05,01,07,51,11.10
2016,05,01,07,52,11.10
2016,05,01,07,53,11.10
2016,05,01,07,54,11.20
2016,05,01,07,56,11.20
2016,05,01,07,57,11.20
2016,05,01,07,59,11.20
2016,05,01,08,00,11.20
2016,05,01,08,02,11.30
2016,05,01,08,03,11.30
2016,05,01,08,04,11.30
2016,05,01,08,06,11.40
2016,05,01,08,07,11.40
2016,05,01,08,08,11.40
2016,05,01,08,09,11.40
2016,05,01,09,21,14.20
2016,05,01,09,22,14.20
2016,05,01,09,23,14.20
2016,05,01,09,24,14.20
2016,05,01,09,25,14.20
2016,05,01,09,26,14.10
2016,05,01,09,27,14.10
2016,05,01,09,28,14.10
2016,05,01,09,29,14.10
2016,05,01,09,30,14.10
2016,05,01,09,31,14.10
2016,05,01,09,32,14.00
2016,05,01,09,33,14.10
2016,05,01,09,34,14.10
2016,05,01,09,35,14.10
2016,05,01,09,36,14.10
2016,05,01,09,37,14.10
2016,05,01,09,38,14.10
2016,05,01,09,39,14.10
2016,05,01,09,40,14.10
2016,05,01,09,41,14.00
2016,05,01,09,42,14.00
2016,05,01,09,43,14.00
2016,05,01,09,44,14.00
2016,05,01,09,45,14.00
2016,05,01,09,46,14.10
2016,05,01,09,47,14.10
2016,05,01,09,48,14.20
2016,05,01,09,49,14.20
2016,05,01,09,50,14.20
2016,05,01,09,51,14.20
2016,05,01,09,52,14.20
2016,05,01,09,53,14.20
2016,05,01,09,54,14.20
2016,05,01,09,55,14.20
2016,05,01,09,56,14.20
2016,05,01,09,57,14.20
2016,05,01,09,58,14.20
2016,05,01,09,59,14.20
2016,05,01,10,00,14.20
2016,05,01,10,01,14.30
2016,05,01,10,03,14.40
2016,05,01,10,04,14.40
2016,05,01,10,06,14.50
2016,05,01,10,07,14.60
2016,05,01,10,08,14.60
2016,05,01,10,09,14.60
2016,05,01,10,10,14.60
2016,05,01,10,11,14.70
2016,05,01,10,13,14.60
2016,05,01,10,14,14.60
2016,05,01,10,16,14.70
2016,05,01,10,17,14.70
2016,05,01,10,18,14.80
2016,05,01,10,19,14.80
2016,05,01,10,21,14.90
2016,05,01,10,22,15.00
2016,05,01,10,23,15.00
2016,05,01,10,24,15.10
2016,05,01,10,26,15.10
2016,05,01,10,27,15.10
2016,05,01,10,28,15.10
2016,05,01,10,29,15.10
2016,05,01,10,31,15.10
2016,05,01,10,32,15.00
2016,05,01,10,33,15.00
2016,05,01,10,34,14.90
2016,05,01,10,36,14.90
2016,05,01,10,37,15.00
2016,05,01,10,38,15.00
2016,05,01,10,39,14.90
2016,05,01,10,41,14.90
2016,05,01,10,42,14.90
2016,05,01,10,43,14.80
2016,05,01,10,44,14.80
2016,05,01,10,46,14.80
2016,05,01,10,47,14.80
2016,05,01,10,48,14.80
2016,05,01,10,49,14.80
2016,05,01,10,51,14.70
2016,05,01,10,52,14.70
2016,05,01,10,53,14.70
2016,05,01,10,54,14.70
2016,05,01,10,56,14.70
2016,05,01,10,57,14.60
2016,05,01,10,58,14.60
2016,05,01,10,59,14.70
2016,05,01,11,01,14.70
2016,05,01,11,02,14.70
2016,05,01,11,03,14.70
2016,05,01,11,04,14.70
2016,05,01,11,06,14.70
2016,05,01,11,07,14.70
2016,05,01,11,08,14.80
2016,05,01,11,09,14.80
2016,05,01,11,11,14.80
2016,05,01,11,12,14.80
2016,05,01,11,13,14.80
2016,05,01,11,14,14.80
2016,05,01,11,16,14.80
2016,05,01,11,17,14.90
2016,05,01,11,18,14.90
2016,05,01,11,19,15.00
2016,05,01,11,21,15.10
2016,05,01,11,22,15.20
2016,05,01,11,23,15.20
2016,05,01,11,24,15.20
2016,05,01,11,25,15.30
2016,05,01,11,26,15.30
2016,05,01,11,27,15.30
2016,05,01,11,28,15.30
2016,05,01,11,29,15.40
2016,05,01,11,30,15.40
2016,05,01,11,31,15.50
2016,05,01,11,32,15.50
2016,05,01,11,33,15.60
2016,05,01,11,34,15.60
2016,05,01,11,35,15.70
2016,05,01,11,36,15.80
2016,05,01,11,37,15.80
2016,05,01,11,38,15.80
2016,05,01,11,39,15.80
2016,05,01,11,40,15.80
2016,05,01,11,41,15.80
2016,05,01,11,42,15.80
2016,05,01,11,43,15.80
2016,05,01,11,44,15.80
2016,05,01,11,45,15.80
2016,05,01,11,46,15.80
2016,05,01,11,47,15.80
2016,05,01,11,48,15.80
2016,05,01,11,49,15.80
2016,05,01,11,50,15.80
2016,05,01,11,51,15.80
2016,05,01,11,52,15.80
2016,05,01,11,53,15.80
2016,05,01,11,54,15.80
2016,05,01,11,55,15.80
2016,05,01,11,56,15.80
2016,05,01,11,57,15.70
2016,05,01,11,58,15.70
2016,05,01,11,59,15.70
2016,05,01,12,00,15.70
2016,05,01,12,01,15.60
2016,05,01,12,02,15.60
2016,05,01,12,03,15.70
2016,05,01,12,04,15.80
2016,05,01,12,05,15.80
2016,05,01,12,06,15.90
2016,05,01,12,07,16.10
2016,05,01,12,08,16.10
2016,05,01,12,09,16.10
2016,05,01,12,10,16.20
2016,05,01,12,11,16.20
2016,05,01,12,12,16.20
2016,05,01,12,13,16.20
2016,05,01,12,14,16.20
2016,05,01,12,15,16.10
2016,05,01,12,16,16.10
2016,05,01,12,17,16.10
2016,05,01,12,18,16.20
2016,05,01,12,19,16.20
2016,05,01,12,20,16.20
2016,05,01,12,21,16.20
2016,05,01,12,22,16.20
2016,05,01,12,23,16.30
2016,05,01,12,24,16.30
2016,05,01,12,25,16.30
2016,05,01,12,26,16.40
2016,05,01,12,27,16.40
2016,05,01,12,28,16.40
2016,05,01,12,29,16.40
2016,05,01,12,30,16.40
2016,05,01,12,31,16.40
2016,05,01,12,32,16.40
2016,05,01,12,33,16.40
2016,05,01,12,34,16.40
2016,05,01,12,35,16.40
2016,05,01,12,36,16.60
2016,05,01,12,37,16.60
2016,05,01,12,38,16.60
2016,05,01,12,39,16.40
2016,05,01,12,40,16.40
2016,05,01,12,41,16.40
2016,05,01,12,42,16.40
2016,05,01,12,43,16.40
2016,05,01,12,44,16.40
2016,05,01,12,45,16.30
2016,05,01,12,46,16.30
2016,05,01,12,47,16.30
2016,05,01,12,48,16.30
2016,05,01,12,49,16.20
2016,05,01,12,50,16.20
2016,05,01,12,51,16.20
2016,05,01,12,52,16.20
2016,05,01,12,53,16.20
2016,05,01,12,54,16.20
2016,05,01,12,55,16.20
2016,05,01,12,57,16.30
2016,05,01,12,58,16.30
2016,05,01,12,59,16.30
2016,05,01,13,00,16.30
2016,05,01,13,02,16.30
2016,05,01,13,03,16.30
2016,05,01,13,04,16.30
2016,05,01,13,06,16.40
2016,05,01,13,07,16.40
2016,05,01,13,08,16.40
2016,05,01,13,09,16.40
2016,05,01,13,11,16.40
2016,05,01,13,12,16.40
2016,05,01,13,13,16.30
2016,05,01,13,14,16.30
2016,05,01,13,16,16.30
2016,05,01,13,17,16.30
2016,05,01,13,18,16.30
2016,05,01,13,19,16.30
2016,05,01,13,21,16.20
2016,05,01,13,22,16.10
2016,05,01,13,23,16.10
2016,05,01,13,24,16.10
2016,05,01,13,26,15.90
2016,05,01,13,27,15.90
2016,05,01,13,28,15.90
2016,05,01,13,29,15.80
2016,05,01,13,31,15.80
2016,05,01,13,32,15.80
2016,05,01,13,33,15.80
2016,05,01,13,34,15.80
2016,05,01,13,36,15.80
2016,05,01,13,37,15.80
2016,05,01,13,38,15.80
2016,05,01,13,39,15.80
2016,05,01,13,41,15.80
2016,05,01,13,42,15.80
2016,05,01,13,43,15.80
2016,05,01,13,44,15.80
2016,05,01,13,46,15.90
2016,05,01,13,47,15.90
2016,05,01,13,48,15.90
2016,05,01,13,49,16.10
2016,05,01,13,51,16.10
2016,05,01,13,52,16.10
2016,05,01,13,53,16.20
2016,05,01,13,54,16.20
2016,05,01,13,56,16.30
2016,05,01,13,57,16.30
2016,05,01,13,58,16.40
2016,05,01,13,59,16.30
2016,05,01,14,01,16.30
2016,05,01,14,02,16.30
2016,05,01,14,03,16.20
2016,05,01,14,04,16.20
2016,05,01,14,06,16.20
2016,05,01,14,07,16.20
2016,05,01,14,08,16.20
2016,05,01,14,09,16.10
2016,05,01,14,11,16.10
2016,05,01,14,12,16.10
2016,05,01,14,13,16.10
2016,05,01,14,14,16.10
2016,05,01,14,15,16.20
2016,05,01,14,16,16.20
2016,05,01,14,17,16.20
2016,05,01,14,18,16.20
2016,05,01,14,19,16.20
2016,05,01,14,21,16.20
2016,05,01,14,22,16.10
2016,05,01,14,23,16.10
2016,05,01,14,24,16.10
2016,05,01,14,25,16.10
2016,05,01,14,26,16.10
2016,05,01,14,27,16.10
2016,05,01,14,28,16.10
2016,05,01,14,29,16.10
2016,05,01,14,30,16.10
2016,05,01,14,31,16.10
2016,05,01,14,32,16.10
2016,05,01,14,33,16.10
2016,05,01,14,34,16.10
2016,05,01,14,35,16.10
2016,05,01,14,36,16.10
2016,05,01,14,37,16.20
2016,05,01,14,38,16.20
2016,05,01,14,39,16.20
2016,05,01,14,40,16.20
2016,05,01,14,41,16.20
2016,05,01,14,42,16.20
2016,05,01,14,43,16.20
2016,05,01,14,44,16.20
2016,05,01,14,45,16.20
2016,05,01,14,46,16.20
2016,05,01,14,47,16.20
2016,05,01,14,48,16.10
2016,05,01,14,49,16.10
2016,05,01,14,50,16.10
2016,05,01,14,51,16.10
2016,05,01,14,52,16.10
2016,05,01,14,53,16.10
2016,05,01,14,54,16.10
2016,05,01,14,55,16.10
2016,05,01,14,56,16.10
2016,05,01,14,57,16.10
2016,05,01,14,58,16.10
2016,05,01,14,59,16.20
2016,05,01,15,00,16.20
2016,05,01,15,01,16.30
2016,05,01,15,02,16.30
2016,05,01,15,03,16.30
2016,05,01,15,04,16.40
2016,05,01,15,05,16.40
2016,05,01,15,06,16.40
2016,05,01,15,07,16.40
2016,05,01,15,08,16.40
2016,05,01,15,09,16.60
2016,05,01,15,10,16.60
2016,05,01,15,11,16.70
2016,05,01,15,12,16.70
2016,05,01,15,13,16.70
2016,05,01,15,14,16.70
2016,05,01,15,15,16.70
2016,05,01,15,16,16.70
2016,05,01,15,17,16.70
2016,05,01,15,18,16.80
2016,05,01,15,19,16.80
2016,05,01,15,20,16.80
2016,05,01,15,21,16.80
2016,05,01,15,22,16.80
2016,05,01,15,23,16.90
2016,05,01,15,24,16.90
2016,05,01,15,25,16.90
2016,05,01,15,26,17.00
2016,05,01,15,27,17.00
2016,05,01,15,28,17.10
2016,05,01,15,29,17.10
2016,05,01,15,30,17.20
2016,05,01,15,31,17.20
2016,05,01,15,32,17.20
2016,05,01,15,33,17.30
2016,05,01,15,34,17.30
2016,05,01,15,35,17.30
2016,05,01,15,36,17.30
2016,05,01,15,37,17.30
2016,05,01,15,38,17.30
2016,05,01,15,39,17.30
2016,05,01,15,41,17.30
2016,05,01,15,42,17.30
2016,05,01,15,43,17.30
2016,05,01,15,44,17.30
2016,05,01,15,46,17.40
2016,05,01,15,47,17.40
2016,05,01,15,48,17.50
2016,05,01,15,49,17.50
2016,05,01,15,51,17.60
2016,05,01,15,52,17.70
2016,05,01,15,53,17.70
2016,05,01,15,54,17.70
2016,05,01,15,56,17.80
2016,05,01,15,57,17.80
2016,05,01,15,58,17.80
2016,05,01,15,59,17.80
2016,05,01,16,01,17.80
2016,05,01,16,02,17.80
2016,05,01,16,03,17.80
2016,05,01,16,04,17.80
2016,05,01,16,06,17.80
2016,05,01,16,07,17.90
2016,05,01,16,08,17.90
2016,05,01,16,09,17.90
2016,05,01,16,11,17.90
2016,05,01,16,12,17.90
2016,05,01,16,13,17.90
2016,05,01,16,14,17.90
2016,05,01,16,16,17.80
2016,05,01,16,17,17.80
2016,05,01,16,18,17.70
2016,05,01,16,19,17.70
2016,05,01,16,21,17.70
2016,05,01,16,22,17.70
2016,05,01,16,23,17.80
2016,05,01,16,24,17.80
2016,05,01,16,26,17.80
2016,05,01,16,27,17.80
2016,05,01,16,28,17.90
2016,05,01,16,29,17.90
2016,05,01,16,31,17.90
2016,05,01,16,32,17.90
2016,05,01,16,33,17.90
2016,05,01,16,34,17.80
2016,05,01,16,36,17.80
2016,05,01,16,37,17.80
2016,05,01,16,38,17.80
2016,05,01,16,39,17.80
2016,05,01,16,41,17.90
2016,05,01,16,42,17.90
2016,05,01,16,43,17.90
2016,05,01,17,21,19.10
2016,05,01,17,22,19.10
2016,05,01,17,23,19.10
2016,05,01,17,24,19.10
2016,05,01,17,25,19.10
2016,05,01,17,26,19.10
2016,05,01,17,27,19.10
2016,05,01,17,28,19.10
2016,05,01,17,29,19.10
2016,05,01,17,30,19.10
2016,05,01,17,31,19.10
2016,05,01,17,32,19.10
2016,05,01,17,33,19.10
2016,05,01,17,34,19.10
2016,05,01,17,35,19.10
2016,05,01,17,36,19.20
2016,05,01,17,37,19.20
2016,05,01,17,38,19.20
2016,05,01,17,39,19.20
2016,05,01,17,40,19.20
2016,05,01,17,41,19.20
2016,05,01,17,42,19.20
2016,05,01,17,43,19.10
2016,05,01,17,44,19.10
2016,05,01,17,45,19.10
2016,05,01,17,46,19.10
2016,05,01,17,47,19.10
2016,05,01,17,48,18.90
2016,05,01,17,49,18.90
2016,05,01,17,50,18.90
2016,05,01,17,51,18.80
2016,05,01,17,52,18.80
2016,05,01,17,53,18.70
2016,05,01,17,54,18.70
2016,05,01,17,55,18.60
2016,05,01,17,56,18.60
2016,05,01,17,57,18.60
2016,05,01,17,58,18.60
2016,05,01,17,59,18.60
2016,05,01,18,00,18.60
2016,05,01,18,01,18.60
2016,05,01,18,02,18.60
2016,05,01,18,03,18.60
2016,05,01,18,04,18.60
2016,05,01,18,05,18.70
2016,05,01,18,06,18.70
2016,05,01,18,07,18.80
2016,05,01,18,08,18.90
2016,05,01,18,09,18.90
2016,05,01,18,10,18.90
2016,05,01,18,11,19.10
2016,05,01,18,12,19.10
2016,05,01,18,13,19.10
2016,05,01,18,14,19.20
2016,05,01,18,15,19.20
2016,05,01,18,16,19.30
2016,05,01,18,17,19.30
2016,05,01,18,18,19.30
2016,05,01,18,19,19.30
2016,05,01,18,20,19.30
2016,05,01,18,21,19.30
2016,05,01,18,22,19.30
2016,05,01,18,23,19.30
2016,05,01,18,24,19.30
2016,05,01,18,25,19.30
2016,05,01,18,26,19.30
2016,05,01,18,28,19.30
2016,05,01,18,29,19.20
2016,05,01,18,31,19.10
2016,05,01,18,32,19.10
2016,05,01,18,33,19.10
2016,05,01,18,34,18.90
2016,05,01,18,35,18.90
2016,05,01,18,36,18.90
2016,05,01,18,37,18.90
2016,05,01,18,38,18.90
2016,05,01,18,39,18.90
2016,05,01,18,40,18.90
2016,05,01,18,41,18.90
2016,05,01,18,42,18.90
2016,05,01,18,43,18.90
2016,05,01,18,44,18.90
2016,05,01,18,45,18.90
2016,05,01,18,46,18.90
2016,05,01,18,47,18.90
2016,05,01,18,48,18.90
2016,05,01,18,49,18.90
2016,05,01,18,50,18.90
2016,05,01,18,51,18.90
2016,05,01,18,52,19.10
2016,05,01,18,53,19.10
2016,05,01,18,54,19.10
2016,05,01,18,55,19.10
2016,05,01,18,56,19.10
2016,05,01,18,57,19.10
2016,05,01,18,58,19.10
2016,05,01,18,59,19.10
2016,05,01,19,00,19.10
2016,05,01,19,01,19.10
2016,05,01,19,02,19.10
2016,05,01,19,03,19.20
2016,05,01,19,04,19.20
2016,05,01,19,05,19.20
2016,05,01,19,06,19.20
2016,05,01,19,07,19.30
2016,05,01,19,08,19.30
2016,05,01,19,09,19.40
2016,05,01,19,10,19.40
2016,05,01,19,11,19.50
2016,05,01,19,12,19.50
2016,05,01,19,13,19.60
2016,05,01,19,14,19.60
2016,05,01,19,15,19.60
2016,05,01,19,16,19.60
2016,05,01,19,17,19.60
2016,05,01,19,18,19.60
2016,05,01,19,19,19.60
2016,05,01,19,20,19.60
2016,05,01,19,21,19.60
2016,05,01,19,22,19.60
2016,05,01,19,23,19.50
2016,05,01,19,24,19.50
2016,05,01,19,25,19.50
2016,05,01,19,26,19.50
2016,05,01,19,27,19.50
2016,05,01,19,28,19.50
2016,05,01,19,29,19.50
2016,05,01,19,30,19.50
2016,05,01,19,31,19.50
2016,05,01,19,32,19.50
2016,05,01,19,33,19.50
2016,05,01,19,34,19.50
2016,05,01,19,35,19.50
2016,05,01,19,36,19.50
2016,05,01,19,37,19.50
2016,05,01,19,38,19.40
2016,05,01,19,39,19.30
2016,05,01,19,40,19.20
2016,05,01,19,41,19.10
2016,05,01,19,43,18.90
2016,05,01,19,44,18.90
2016,05,01,19,46,18.70
2016,05,01,19,47,18.60
2016,05,01,19,48,18.60
2016,05,01,19,49,18.50
2016,05,01,19,51,18.40
2016,05,01,19,52,18.40
2016,05,01,19,53,18.40
2016,05,01,19,54,18.40
2016,05,01,19,56,18.30
2016,05,01,19,57,18.30
2016,05,01,19,58,18.20
2016,05,01,19,59,18.20
2016,05,01,20,01,18.20
2016,05,01,20,02,18.20
2016,05,01,20,03,18.10
2016,05,01,20,04,18.10
2016,05,01,20,06,17.90
2016,05,01,20,07,17.80
2016,05,01,20,08,17.80
2016,05,01,20,09,17.70
2016,05,01,20,11,17.50
2016,05,01,20,12,17.40
2016,05,01,20,13,17.30
2016,05,01,20,14,17.30
2016,05,01,20,16,17.00
2016,05,01,20,17,16.90
2016,05,01,20,18,16.80
2016,05,01,20,19,16.70
2016,05,01,20,21,16.70
2016,05,01,20,22,16.60
2016,05,01,20,23,16.60
2016,05,01,20,24,16.60
2016,05,01,20,26,16.40
2016,05,01,20,27,16.60
2016,05,01,20,28,16.60
2016,05,01,20,29,16.60
2016,05,01,20,31,16.60
2016,05,01,20,32,16.60
2016,05,01,20,33,16.60
2016,05,01,20,34,16.60
2016,05,01,20,36,16.60
2016,05,01,20,37,16.60
2016,05,01,20,38,16.60
2016,05,01,20,39,16.60
2016,05,01,20,41,16.60
2016,05,01,20,42,16.60
2016,05,01,20,43,16.60
2016,05,01,20,44,16.40
2016,05,01,20,46,16.40
2016,05,01,20,47,16.40
2016,05,01,20,48,16.40
2016,05,01,20,49,16.40
2016,05,01,20,51,16.40
2016,05,01,20,52,16.40
2016,05,01,20,53,16.30
2016,05,01,20,54,16.30
2016,05,01,20,55,16.30
2016,05,01,20,56,16.20
2016,05,01,20,57,16.20
2016,05,01,20,58,16.10
2016,05,01,20,59,16.10
2016,05,01,21,00,15.90
2016,05,01,21,01,15.90
2016,05,01,21,02,15.80
2016,05,01,21,03,15.80
2016,05,01,21,04,15.70
2016,05,01,21,06,15.60
2016,05,01,21,07,15.50
2016,05,01,21,08,15.50
2016,05,01,21,09,15.40
2016,05,01,21,10,15.30
2016,05,01,21,11,15.30
2016,05,01,21,12,15.30
2016,05,01,21,13,15.20
2016,05,01,21,14,15.20
2016,05,01,21,15,15.10
2016,05,01,21,16,15.10
2016,05,01,21,17,15.00
2016,05,01,21,18,15.00